Regional Weather Roundup
Issued by NWS Cleveland, OH

Home | Current Version | Previous Version | Graphics & Text | Print | Product List | Glossary On
Versions: 1 2 3 4 5 6 7 8 9 10 11 12 13 14 15 16 17 18 19 20 21 22 23 24 25 26 27 28 29 30 31 32 33 34 35 36 37 38 39 40 41 42 43 44 45 46 47 48 49 50
000
ASUS41 KCLE 181110
RWRCLE
OHIO REGIONAL WEATHER ROUNDUP
NATIONAL WEATHER SERVICE WILMINGTON, OH
700 AM EDT FRI APR 18 2014

NOTE: "FAIR" INDICATES FEW OR NO CLOUDS BELOW 12,000 FEET WITH NO
SIGNIFICANT WEATHER AND/OR OBSTRUCTIONS TO VISIBILITY.

OHZ001>008-015>018-024>027-034-035-043-044-181200-
   NORTHWEST OHIO

CITY           SKY/WX    TMP DP  RH WIND       PRES   REMARKS
DEFIANCE       CLOUDY    44  35  70 CALM      30.27R
FINDLAY        PTCLDY    44  34  67 S5        30.26R
TOLEDO EXPRESS CLOUDY    48  36  63 NW3       30.27R
TOLEDO METCALF MOCLDY    44  36  73 CALM      30.28R
LIMA           PTCLDY    44  34  67 S3        30.27R
$$

OHZ009>014-019>023-028>033-038-089-181200-
   NORTHEAST OHIO

CITY           SKY/WX    TMP DP  RH WIND       PRES   REMARKS
CLE-HOPKINS    MOCLDY    51  29  42 S8        30.29R
CLE-LAKEFRONT  PTCLDY    49  29  46 SE13      30.24S
CUY CO. ARPT   MOCLDY    48  30  49 S17       30.27
LORAIN-ELYRIA  PTCLDY    47  32  56 S6        30.27R
ASHTABULA      MOCLDY    43  27  53 S13       30.29S
AKRON-CANTON   PTCLDY    46  27  47 SE6       30.29R
WOOSTER        MOCLDY    44  30  57 S3        30.29R
MANSFIELD      PTCLDY    45  31  58 S7        30.28R
YOUNGSTOWN     MOCLDY    41  27  57 SE9       30.30S
$$

OHZ042-051>053-060>062-070>072-077>081-181200-
  SOUTHWEST OHIO

CITY           SKY/WX    TMP DP  RH WIND       PRES   REMARKS
CINC-COVINGTON CLOUDY    44  37  76 CALM      30.27S
CINC-LUNKEN    CLOUDY    39  38  96 CALM      30.30R
HAMILTON       CLOUDY    41  39  93 CALM      30.29R
DAYTON         MOCLDY    47  34  60 CALM      30.28R
WRIGHT-PAT AFB MOCLDY    40  35  81 E1        30.28R
DAYTON GENERAL MOCLDY    43  36  76 CALM      30.27R
WILMINGTON     MOCLDY    44  34  67 CALM      30.27S
$$

OHZ036-037-039>041-045>050-054>059-063>069-073>076-082>088-181200-
  CENTRAL AND SOUTHEAST OHIO

CITY           SKY/WX    TMP DP  RH WIND       PRES   REMARKS
COLUMBUS       CLOUDY    45  33  63 E3        30.28S
OSU AIRPORT    PTCLDY    44  33  65 CALM      30.28R
BOLTON FIELD   MOCLDY    44  32  62 CALM      30.28R
RICKENBACK AFB MOCLDY    45  35  68 CALM      30.28R
NEWARK         MOCLDY    37  33  85 CALM      30.28S
MARION         PTCLDY    44  33  65 S8        30.27S
LANCASTER      MOCLDY    45  31  58 SE7       30.28S
ZANESVILLE     CLOUDY    44  27  51 CALM      30.29S
NEW PHILLY     MOCLDY    38  31  76 SE3       30.31S
$$



USA.gov is the U.S. government's official web portal to all federal, state and local government web resources and services.